| time (UTC) | temp F | wind direction | speed MPH | gust MPH | rain 1hr in | rain 24hr in | rain mn in | humidity % | barometer mb |
| 20260904093102 | 69 | 0 | 0.0 | 0.0 | 0.00 | 0.47 | 0.46 | 96 | 1011.5 |
| 20260904091604 | 69 | 0 | 0.0 | 0.0 | 0.01 | 0.47 | 0.46 | 96 | 1011.5 |
| 20260904090105 | 69 | 0 | 0.0 | 0.0 | 0.01 | 0.47 | 0.46 | 96 | 1011.2 |
| 20260904084601 | 69 | 0 | 0.0 | 0.0 | 0.01 | 0.48 | 0.46 | 96 | 1011.1 |
| 20260904083149 | 69 | 0 | 0.0 | 0.0 | 0.02 | 0.48 | 0.46 | 96 | 1010.8 |
| 20260904081609 | 69 | 0 | 0.0 | 1.0 | 0.13 | 0.47 | 0.45 | 96 | 1010.7 |
| 20260904074559 | 70 | 0 | 0.0 | 0.0 | 0.41 | 0.48 | 0.45 | 96 | 1010.7 |
| 20260904073104 | 70 | 0 | 0.0 | 0.0 | 0.44 | 0.47 | 0.44 | 96 | 1010.8 |
| 20260904071618 | 70 | 0 | 0.0 | 3.0 | 0.32 | 0.35 | 0.32 | 96 | 1011.7 |
| 20260904070117 | 70 | 0 | 0.0 | 0.0 | 0.20 | 0.23 | 0.20 | 96 | 1011.6 |
| 20260904064603 | 70 | 0 | 0.0 | 0.0 | 0.04 | 0.07 | 0.04 | 96 | 1011.6 |
| 20260904063104 | 70 | 0 | 0.0 | 0.0 | 0.00 | 0.03 | 0.00 | 96 | 1011.6 |
| 20260904061552 | 70 | 0 | 0.0 | 0.0 | 0.00 | 0.03 | 0.00 | 95 | 1011.4 |
| 20260904060057 | 70 | 0 | 0.0 | 0.0 | 0.00 | 0.03 | 0.00 | 96 | 1011.6 |
| 20260904054555 | 70 | 0 | 0.0 | 0.0 | 0.00 | 0.11 | 0.00 | 95 | 1011.6 |
| 20260904053104 | 70 | 0 | 0.0 | 0.0 | 0.00 | 0.11 | 0.00 | 95 | 1011.7 |
| 20260904051558 | 70 | 0 | 0.0 | 0.0 | 0.00 | 0.11 | 0.00 | 95 | 1011.8 |
| 20260904050058 | 70 | 0 | 0.0 | 0.0 | 0.00 | 0.11 | 0.00 | 95 | 1012.2 |
| 20260904044551 | 70 | 0 | 0.0 | 0.0 | 0.00 | 0.20 | 0.00 | 95 | 1012.2 |
| 20260904043103 | 70 | 0 | 0.0 | 0.0 | 0.00 | 0.20 | 0.00 | 95 | 1012.2 |
| 20260904041556 | 71 | 0 | 0.0 | 0.0 | 0.00 | 0.20 | 0.00 | 95 | 1012.1 |
| 20260904040108 | 71 | 0 | 0.0 | 0.0 | 0.00 | 0.20 | 0.00 | 94 | 1012.4 |
| 20260904034554 | 71 | 0 | 0.0 | 0.0 | 0.00 | 0.20 | 0.20 | 94 | 1012.5 |
| 20260904033105 | 71 | 0 | 0.0 | 0.0 | 0.00 | 0.20 | 0.20 | 94 | 1012.5 |
| 20260904031608 | 71 | 0 | 0.0 | 0.0 | 0.00 | 0.20 | 0.20 | 95 | 1012.7 |
| 20260904024556 | 71 | 0 | 0.0 | 0.0 | 0.00 | 0.20 | 0.20 | 94 | 1013.2 |
| 20260904023054 | 71 | 0 | 0.0 | 0.0 | 0.00 | 0.20 | 0.20 | 94 | 1013.0 |
| 20260904021601 | 71 | 0 | 0.0 | 0.0 | 0.00 | 0.20 | 0.20 | 94 | 1013.0 |
| 20260904020058 | 71 | 0 | 0.0 | 0.0 | 0.00 | 0.20 | 0.20 | 93 | 1013.3 |
| 20260904014606 | 71 | 0 | 0.0 | 0.0 | 0.00 | 0.20 | 0.20 | 93 | 1013.2 |
| 20260904013055 | 71 | 0 | 0.0 | 0.0 | 0.00 | 0.20 | 0.20 | 93 | 1013.2 |
| 20260904011556 | 71 | 0 | 0.0 | 0.0 | 0.00 | 0.20 | 0.20 | 93 | 1013.2 |
| 20260904010056 | 71 | 0 | 0.0 | 0.0 | 0.00 | 0.20 | 0.20 | 93 | 1013.2 |
| 20260904004557 | 71 | 0 | 0.0 | 0.0 | 0.00 | 0.20 | 0.20 | 92 | 1013.2 |
| 20260904003057 | 72 | 0 | 0.0 | 0.0 | 0.00 | 0.20 | 0.20 | 91 | 1013.0 |
| 20260904001555 | 72 | 0 | 0.0 | 0.0 | 0.00 | 0.20 | 0.20 | 92 | 1012.9 |
| 20260903234557 | 73 | 0 | 0.0 | 0.0 | 0.00 | 0.20 | 0.20 | 90 | 1012.7 |
| 20260903233055 | 74 | 0 | 0.0 | 0.0 | 0.00 | 0.20 | 0.20 | 89 | 1012.4 |
| 20260903231557 | 75 | 0 | 0.0 | 0.0 | 0.00 | 0.20 | 0.20 | 88 | 1012.3 |
| 20260903230058 | 75 | 0 | 0.0 | 2.0 | 0.00 | 0.20 | 0.20 | 88 | 1012.4 |
| 20260903224557 | 76 | 0 | 0.0 | 0.0 | 0.00 | 0.20 | 0.20 | 87 | 1012.6 |
| 20260903223058 | 76 | 0 | 0.0 | 3.0 | 0.00 | 0.20 | 0.20 | 88 | 1012.5 |
| 20260903221556 | 76 | 0 | 0.0 | 2.0 | 0.00 | 0.20 | 0.20 | 84 | 1012.5 |
| 20260903220106 | 77 | 0 | 0.0 | 0.0 | 0.00 | 0.20 | 0.20 | 84 | 1012.7 |
| 20260903214606 | 77 | 0 | 0.0 | 1.0 | 0.00 | 0.20 | 0.20 | 83 | 1012.9 |
| 20260903213054 | 77 | 0 | 0.0 | 2.0 | 0.00 | 0.20 | 0.20 | 82 | 1012.8 |
| 20260903211608 | 78 | 0 | 0.0 | 5.0 | 0.00 | 0.20 | 0.20 | 81 | 1012.7 |
| 20260903210059 | 79 | 215 | 0.0 | 4.0 | 0.00 | 0.20 | 0.20 | 81 | 1012.4 |
| 20260903204604 | 80 | 109 | 1.0 | 3.0 | 0.00 | 0.20 | 0.20 | 78 | 1012.7 |
| 20260903203103 | 78 | 0 | 0.0 | 1.0 | 0.00 | 0.20 | 0.20 | 80 | 1012.8 |
| 20260903201600 | 77 | 0 | 0.0 | 0.0 | 0.00 | 0.20 | 0.20 | 85 | 1012.7 |
| 20260903200104 | 77 | 0 | 0.0 | 2.0 | 0.00 | 0.20 | 0.20 | 84 | 1013.1 |
| 20260903194601 | 77 | 0 | 0.0 | 4.0 | 0.00 | 0.20 | 0.20 | 82 | 1013.0 |
| 20260903193056 | 77 | 277 | 0.0 | 3.0 | 0.00 | 0.20 | 0.20 | 83 | 1013.0 |
| 20260903191602 | 76 | 0 | 0.0 | 2.0 | 0.00 | 0.20 | 0.20 | 84 | 1013.2 |
| 20260903190058 | 77 | 0 | 0.0 | 0.0 | 0.00 | 0.20 | 0.20 | 84 | 1013.2 |
| 20260903184601 | 77 | 0 | 0.0 | 1.0 | 0.00 | 0.27 | 0.20 | 84 | 1013.3 |
| 20260903183100 | 77 | 0 | 0.0 | 0.0 | 0.00 | 0.27 | 0.20 | 82 | 1013.4 |
| 20260903181601 | 77 | 228 | 3.0 | 6.0 | 0.00 | 0.27 | 0.20 | 82 | 1013.6 |
| 20260903180057 | 76 | 0 | 0.0 | 3.0 | 0.00 | 0.27 | 0.20 | 82 | 1013.5 |
| 20260903174601 | 75 | 264 | 0.0 | 4.0 | 0.00 | 0.27 | 0.20 | 84 | 1013.6 |
| 20260903173052 | 75 | 264 | 0.0 | 3.0 | 0.00 | 0.27 | 0.20 | 85 | 1013.7 |
| 20260903171600 | 75 | 276 | 2.0 | 8.0 | 0.00 | 0.27 | 0.20 | 82 | 1014.0 |
| 20260903170103 | 76 | 272 | 3.0 | 10.0 | 0.00 | 0.27 | 0.20 | 82 | 1014.1 |
| 20260903164602 | 75 | 244 | 4.0 | 8.0 | 0.00 | 0.27 | 0.20 | 84 | 1014.3 |
| 20260903163053 | 74 | 264 | 3.0 | 9.0 | 0.00 | 0.27 | 0.20 | 85 | 1014.4 |
| 20260903161556 | 73 | 267 | 4.0 | 10.0 | 0.00 | 0.27 | 0.20 | 86 | 1014.4 |
| 20260903160055 | 73 | 275 | 4.0 | 10.0 | 0.00 | 0.27 | 0.20 | 87 | 1014.5 |
| 20260903154559 | 73 | 229 | 3.0 | 9.0 | 0.00 | 0.27 | 0.20 | 86 | 1015.0 |
| 20260903153112 | 72 | 265 | 5.0 | 10.0 | 0.00 | 0.27 | 0.20 | 88 | 1014.7 |
| 20260903151612 | 72 | 248 | 5.0 | 9.0 | 0.00 | 0.27 | 0.20 | 88 | 1015.0 |
| 20260903150104 | 71 | 257 | 5.0 | 12.0 | 0.00 | 0.27 | 0.20 | 89 | 1015.1 |
| 20260903144556 | 71 | 244 | 5.0 | 11.0 | 0.00 | 0.27 | 0.20 | 90 | 1014.9 |
| 20260903143104 | 70 | 258 | 4.0 | 10.0 | 0.00 | 0.27 | 0.20 | 90 | 1014.9 |
| 20260903141558 | 69 | 221 | 3.0 | 10.0 | 0.00 | 0.27 | 0.20 | 93 | 1014.8 |
| 20260903140057 | 68 | 0 | 2.0 | 7.0 | 0.00 | 0.27 | 0.20 | 94 | 1014.7 |
| 20260903134606 | 68 | 199 | 2.0 | 10.0 | 0.00 | 0.27 | 0.20 | 95 | 1014.8 |
| 20260903133104 | 67 | 226 | 0.0 | 4.0 | 0.00 | 0.27 | 0.20 | 96 | 1014.9 |
| 20260903131558 | 67 | 0 | 1.0 | 5.0 | 0.00 | 0.27 | 0.20 | 96 | 1014.8 |
| 20260903124556 | 67 | 0 | 0.0 | 1.0 | 0.00 | 0.27 | 0.20 | 96 | 1015.4 |
| 20260903123105 | 66 | 0 | 0.0 | 0.0 | 0.00 | 0.27 | 0.20 | 96 | 1015.6 |
| 20260903121553 | 66 | 0 | 0.0 | 4.0 | 0.00 | 0.27 | 0.20 | 97 | 1015.3 |
| 20260903120100 | 66 | 0 | 0.0 | 4.0 | 0.00 | 0.27 | 0.20 | 96 | 1015.4 |
| 20260903114556 | 65 | 0 | 0.0 | 3.0 | 0.00 | 0.27 | 0.20 | 96 | 1015.7 |
| 20260903113056 | 65 | 0 | 0.0 | 0.0 | 0.00 | 0.27 | 0.20 | 96 | 1016.0 |
| 20260903111608 | 65 | 0 | 0.0 | 0.0 | 0.00 | 0.27 | 0.20 | 96 | 1015.9 |
| 20260903110100 | 65 | 0 | 0.0 | 2.0 | 0.00 | 0.27 | 0.20 | 96 | 1015.8 |
| 20260903104624 | 65 | 0 | 0.0 | 0.0 | 0.00 | 0.27 | 0.20 | 96 | 1016.0 |
| 20260903103106 | 65 | 0 | 0.0 | 0.0 | 0.00 | 0.27 | 0.20 | 96 | 1015.8 |
| 20260903101600 | 65 | 0 | 0.0 | 0.0 | 0.00 | 0.27 | 0.20 | 96 | 1015.6 |
| 20260903100104 | 65 | 0 | 0.0 | 0.0 | 0.01 | 0.27 | 0.20 | 96 | 1015.5 |
| 20260903094556 | 65 | 0 | 0.0 | 3.0 | 0.01 | 0.27 | 0.20 | 96 | 1015.2 |